Location: Trenton
(45.6167°N, 62.6167°W)
Time: 20:05:34
(UTC+00:00)

Nauka - Pass Details

Date: 03 October 2021
Orbit: 417 x 423 km, 51.6° (Epoch: 17 October)

Event Time Altitude Azimuth Distance (km) Brightness Sun altitude
Rises 22:56:43 0° 297° (WNW) 2,365 ? -13.1°
Reaches altitude 10° 22:58:49 10° 295° (WNW) 1,499 ? -13.5°
Maximum altitude 23:02:10 67° 213° (SSW) 457 ? -14.1°
Enters shadow 23:04:02 24° 135° (SE) 918 ? -14.4°
